Theta_e
318 319 319 319 319 318 317 317 315 315 311 312 312 312 312 312 312 319 325 323 323 339 353 354 353 355 353 357 355 355 370 364 359 360 358 357 357 356 354 354 353 353 347 342 341
319 319 319 319 318 318 318 316 315 312 310 310 311 311 311 312 324 326 323 319 323 347 354 350 351 353 358 354 354 364 364 358 353 357 355 356 354 356 356 356 356 345 342 342 344
315 315 318 318 318 318 318 316 313 310 309 310 310 311 312 313 330 334 320 322 331 351 348 351 350 352 355 354 354 353 355 352 351 353 352 354 355 353 355 357 355 349 346 346 344
313 315 316 317 318 318 317 315 313 309 309 310 310 311 312 328 345 335 317 324 336 356 348 353 352 353 353 353 351 353 352 352 351 352 352 354 355 357 359 361 354 351 347 345 345
311 312 314 318 318 317 316 314 312 309 309 310 311 312 322 332 338 325 324 335 338 354 351 354 358 354 354 351 351 353 353 353 353 353 352 351 357 357 358 355 354 351 348 345 345
310 311 312 315 318 317 315 314 312 310 310 311 311 313 329 336 339 329 344 344 350 352 351 352 350 351 354 352 353 351 353 354 354 354 352 353 354 356 357 354 355 353 349 347 345
308 310 311 313 317 317 315 314 312 311 311 311 312 323 333 334 340 335 347 351 352 352 353 348 348 352 352 354 350 352 357 355 356 355 355 354 356 358 355 355 356 354 350 349 345
309 309 310 312 317 317 315 313 312 311 311 311 314 329 332 338 337 341 347 352 350 349 349 352 352 354 355 351 351 353 354 359 356 355 355 357 363 358 354 356 358 356 354 348 344
310 310 311 311 316 316 314 313 312 311 311 313 326 332 338 339 336 342 343 351 349 349 349 346 345 349 351 352 347 351 357 355 360 356 356 356 360 357 354 354 357 358 356 350 346
311 311 312 312 315 315 312 314 311 313 315 324 327 327 329 345 339 338 339 343 348 347 346 345 346 353 351 346 351 345 344 348 356 356 356 354 358 356 354 353 358 358 355 352 350
311 312 314 314 315 314 313 320 329 328 321 326 326 333 333 340 341 343 341 343 341 342 341 344 352 354 345 342 343 344 344 343 346 351 355 356 361 357 353 353 357 355 355 353 351
312 313 315 316 315 314 320 328 329 326 321 324 326 332 338 339 341 341 339 342 346 342 343 348 355 343 341 341 341 341 341 341 343 347 354 355 359 357 354 352 353 355 354 352 349
313 314 316 315 317 316 322 326 326 327 328 325 325 331 339 339 340 338 338 340 343 343 343 355 350 341 338 339 337 335 337 338 345 346 349 353 359 361 356 352 351 352 352 351 350
313 314 315 315 318 327 327 326 326 327 331 326 327 329 338 338 340 337 337 340 342 345 347 343 342 338 338 337 336 334 333 336 341 347 368 351 365 352 362 357 353 351 351 351 351
312 313 313 314 323 328 330 326 326 328 335 328 326 329 332 334 338 337 337 339 342 344 342 343 341 340 340 338 336 337 337 336 339 342 341 351 350 370 362 364 356 352 351 350 351
311 312 313 318 318 327 328 327 328 333 333 326 327 328 330 332 332 338 338 338 339 342 341 341 339 338 339 337 336 335 339 340 339 340 357 353 343 360 360 362 360 352 351 350 350
311 312 313 321 331 327 328 329 334 337 327 327 326 327 328 330 331 336 338 338 339 342 341 339 337 337 336 336 335 336 340 351 346 344 351 341 347 361 350 350 357 355 351 349 349
313 315 320 322 326 326 329 332 339 331 328 327 326 328 327 329 329 333 336 338 337 339 339 340 336 336 335 334 336 334 336 338 339 337 340 338 349 343 346 348 352 353 350 349 348
320 322 325 326 324 327 331 335 336 333 331 328 328 327 327 327 327 329 332 335 337 338 338 338 341 335 333 333 334 335 334 334 333 334 333 346 346 346 346 349 350 352 350 350 348
327 330 331 327 326 329 333 334 336 332 332 331 329 328 328 328 327 328 329 330 332 334 335 336 338 335 333 333 333 334 335 335 337 343 344 343 346 350 348 349 351 352 350 350 349
328 333 329 328 327 331 333 333 333 331 333 334 334 330 330 329 328 329 329 330 330 330 333 334 335 336 334 334 336 334 334 334 337 340 343 337 341 341 345 350 351 351 352 352 350
334 332 328 327 330 330 332 333 322 332 334 335 335 335 334 333 332 331 330 331 331 330 330 333 334 334 335 335 335 335 336 337 336 337 340 339 347 344 341 346 350 349 352 353 352
335 332 328 328 331 330 331 331 331 335 337 336 335 335 337 337 337 333 331 332 331 331 330 331 333 335 334 333 334 333 334 334 335 334 337 337 343 338 344 343 347 349 352 354 354
335 333 331 330 334 333 330 330 333 334 336 336 338 337 339 338 337 336 334 333 330 333 342 335 334 333 333 336 337 336 334 335 334 334 339 342 342 342 344 344 347 347 350 352 354
334 334 333 330 330 330 333 336 335 336 335 337 339 338 340 340 338 340 338 337 335 334 333 333 333 333 333 334 334 336 336 334 334 334 336 339 338 336 341 342 347 348 352 353 354
334 333 334 334 334 333 329 335 335 336 337 338 339 336 339 341 338 343 338 340 338 338 334 335 335 335 336 334 334 333 333 334 334 334 334 334 335 335 339 347 348 350 352 356 356
318 324 329 324 332 332 333 334 332 333 337 332 333 335 338 331 329 330 332 333 336 339 340 337 335 334 336 334 334 333 333 333 334 334 335 333 340 340 344 348 348 349 350 353 355
Wind_Speed
16 14 13 10 9 8 7 6 4 5 4 5 5 5 4 3 4 6 9 5 6 13 11 9 8 9 8 9 11 5 3 0 10 10 10 16 10 10 7 11 7 5 18 22 27
16 15 14 12 9 8 7 6 5 6 4 3 5 4 3 4 9 13 6 5 8 15 9 9 8 9 8 3 5 7 3 7 8 18 9 13 8 9 11 11 11 17 23 28 21
17 16 15 13 10 8 7 5 5 4 2 4 4 4 4 3 12 9 8 7 16 15 8 5 6 4 7 5 4 5 9 8 8 10 8 10 12 8 12 6 13 20 25 23 27
18 17 16 13 11 8 6 4 4 2 3 5 5 5 5 5 2 6 9 11 19 14 9 4 3 4 8 4 1 2 7 8 7 2 8 6 10 11 15 10 11 17 22 22 21
19 18 16 14 11 8 5 4 2 2 4 6 6 5 2 9 6 4 9 12 17 13 13 11 12 7 6 5 5 5 6 5 5 4 11 2 15 4 7 4 14 17 21 22 20
20 19 18 15 12 8 4 2 1 3 5 6 6 4 7 6 6 10 9 14 13 11 15 10 5 7 9 2 8 3 3 3 8 6 7 7 6 6 6 6 15 16 18 19 21
20 19 17 16 12 7 2 2 3 4 5 6 6 2 12 7 7 12 12 12 9 10 6 6 8 10 8 3 3 4 11 12 14 8 7 9 9 8 7 9 13 15 13 18 16
20 19 18 15 11 4 1 3 4 5 5 5 3 5 3 3 12 14 11 9 7 4 7 4 7 12 12 4 8 13 14 15 14 9 5 15 10 8 8 11 13 14 14 14 14
21 19 17 15 10 1 5 5 5 5 5 4 4 9 10 11 12 12 10 9 7 10 9 7 11 14 11 14 11 12 14 17 12 8 6 9 10 11 9 13 13 13 13 15 17
21 19 16 14 7 5 9 8 6 6 3 5 9 7 7 13 16 13 10 5 7 11 9 11 9 10 13 8 4 3 4 8 12 11 11 6 12 13 11 9 18 16 15 16 15
21 19 16 13 4 13 13 7 5 6 11 6 14 6 18 17 16 11 8 6 6 3 11 12 10 9 13 7 6 3 5 2 7 8 8 6 13 13 12 11 18 15 18 17 21
21 18 15 11 3 18 7 8 8 8 11 9 6 1 17 23 18 10 10 7 8 13 16 13 9 4 6 6 2 4 7 6 7 8 11 8 12 12 13 12 12 18 18 18 19
21 16 14 6 2 14 14 14 5 8 9 14 11 12 17 7 12 8 7 9 12 14 15 8 27 8 5 8 7 3 3 7 8 13 14 10 9 11 13 12 14 14 20 19 15
20 14 11 2 2 6 11 13 11 7 6 18 14 11 14 13 6 18 17 12 10 7 22 4 3 5 8 6 10 12 4 4 6 11 6 18 6 25 18 16 16 16 15 18 24
17 15 11 12 8 9 5 3 6 5 6 21 21 17 13 15 19 9 19 17 11 18 8 17 8 8 9 8 7 7 2 6 9 12 9 9 6 16 19 17 17 16 18 17 18
17 16 6 2 8 9 4 3 8 8 5 12 11 16 18 19 14 22 7 15 15 16 19 23 19 14 11 6 5 5 10 11 11 8 7 22 8 15 7 15 17 17 18 18 18
19 14 9 6 0 3 7 8 8 8 13 15 19 21 21 18 15 20 18 11 15 14 18 16 16 17 9 12 7 9 14 3 6 2 9 15 3 14 11 10 19 19 18 17 17
14 8 6 12 4 5 9 10 15 10 12 15 17 20 19 18 19 20 24 19 26 27 15 13 7 15 10 12 9 10 16 7 5 6 3 4 11 5 11 5 16 18 17 18 17
8 6 5 7 9 8 8 12 7 8 10 13 17 15 16 16 11 19 22 22 25 25 21 11 11 6 3 8 11 5 8 12 13 2 5 6 10 11 10 10 14 17 18 18 18
4 11 8 8 10 9 8 17 3 10 4 6 13 12 14 17 12 16 17 16 16 17 16 16 5 8 13 8 13 16 11 5 5 3 6 3 10 9 9 11 12 17 16 17 17
7 6 4 9 11 7 10 4 4 4 5 7 8 13 16 17 16 14 10 11 14 17 16 18 10 4 9 14 3 9 12 12 9 11 9 8 4 10 8 12 13 16 17 17 17
10 4 9 14 7 10 12 2 4 3 3 5 7 10 3 1 10 12 16 9 4 12 20 17 11 13 16 7 9 11 7 16 7 9 14 4 7 9 5 12 11 11 17 18 17
2 6 9 12 7 10 8 6 5 4 2 3 4 5 5 5 3 7 1 11 2 7 8 14 12 13 13 13 12 10 13 15 6 12 6 3 3 4 5 9 10 12 14 15 17
5 5 5 8 11 14 12 12 9 3 1 5 8 5 7 8 4 2 7 4 4 7 10 6 14 19 10 10 15 10 17 8 14 4 9 9 11 16 11 11 9 7 9 13 17
2 5 4 10 8 10 1 2 8 4 2 2 4 6 9 10 8 6 4 8 8 5 5 9 17 18 17 18 17 18 29 6 11 13 4 19 7 4 14 13 9 9 11 12 16
6 5 3 4 4 8 4 2 7 4 6 5 6 8 6 8 9 9 7 6 6 9 12 12 15 10 15 15 17 17 14 15 7 9 11 10 12 8 16 14 11 11 13 14 17
11 7 5 3 3 8 6 6 4 5 3 6 7 10 7 7 11 12 11 11 12 9 14 12 11 14 15 15 11 15 16 14 8 10 10 7 8 7 11 12 12 12 13 14 16
Wind_Direction
359 356 350 344 335 326 314 311 309 285 250 240 234 229 231 242 249 233 247 124 169 152 161 149 188 204 215 252 242 256 287 247 96 72 123 122 141 133 113 129 128 97 133 145 146
357 355 351 345 337 324 315 310 308 278 250 234 213 218 227 253 264 246 209 239 162 153 191 175 171 194 217 231 249 110 154 184 49 124 151 152 121 131 151 136 127 115 142 136 130
357 354 350 346 336 325 316 308 290 282 236 193 199 197 207 259 265 86 162 193 152 152 119 86 99 255 260 258 299 338 55 83 66 21 118 123 112 185 152 154 141 133 143 145 156
356 353 350 347 338 328 313 295 292 279 186 181 181 194 213 254 348 73 145 161 160 171 158 150 258 219 248 145 187 186 48 34 80 2 117 128 161 116 72 249 132 138 150 156 159
355 352 350 346 340 329 311 291 275 211 164 175 179 195 243 220 64 119 145 165 173 198 200 219 230 266 49 308 187 322 89 141 104 213 105 139 108 265 88 174 128 136 152 160 167
352 351 348 346 341 331 309 271 213 171 162 171 185 195 247 230 94 131 151 159 188 207 218 244 4 6 276 337 314 48 147 141 151 132 109 120 127 143 87 151 132 147 156 161 181
349 348 347 345 343 331 310 200 162 154 161 175 194 230 259 69 141 157 164 178 179 227 194 216 304 296 313 204 72 215 164 153 148 175 148 104 134 91 111 148 147 145 169 169 175
346 344 343 342 345 336 111 153 152 144 159 185 215 246 63 108 149 159 176 197 195 232 289 355 315 287 264 328 188 212 208 147 139 164 141 167 108 132 143 146 136 164 185 165 170
344 342 339 339 352 32 124 134 138 138 155 168 238 225 122 136 158 175 195 197 225 255 259 276 279 263 261 235 190 149 264 134 125 192 149 224 127 149 173 148 154 158 185 169 185
341 339 339 336 356 135 131 132 134 117 189 239 272 245 170 187 158 179 198 268 220 264 257 239 239 244 227 28 263 29 94 88 127 161 221 179 105 156 175 164 151 172 178 181 196
338 336 334 329 9 148 131 130 198 188 208 253 179 263 149 117 147 163 158 198 214 226 235 205 269 5 296 5 352 293 283 170 125 142 204 230 133 164 176 167 153 172 170 197 189
334 332 330 331 321 176 180 242 24 356 176 222 105 78 137 159 144 136 188 223 210 174 231 256 351 228 354 305 237 205 206 155 123 172 240 150 143 166 179 176 175 163 187 193 178
331 328 328 340 78 184 217 232 315 312 225 170 192 176 169 169 159 121 204 213 258 207 230 66 263 312 281 249 226 189 337 145 163 193 222 142 131 179 179 183 170 181 184 178 191
327 325 325 161 268 186 219 236 244 289 258 158 184 189 178 208 147 152 187 220 195 256 276 168 308 325 294 326 337 101 27 246 209 214 123 228 164 260 182 188 181 181 192 186 176
324 318 311 206 311 228 61 224 218 248 258 149 177 170 184 209 138 157 199 233 243 252 279 277 242 336 304 14 343 56 269 251 233 257 233 190 249 200 171 187 183 189 181 194 188
319 309 307 229 233 243 270 241 205 232 143 148 140 179 179 217 176 125 157 221 258 268 274 270 277 274 272 312 300 309 236 228 223 244 33 236 296 7 207 189 189 187 182 189 188
313 290 216 230 150 218 212 225 230 246 133 148 165 177 191 193 189 168 182 246 246 222 241 248 239 233 211 255 189 238 240 240 218 165 235 223 199 176 184 172 176 180 182 183 185
299 255 253 198 254 218 212 230 245 103 186 146 172 172 196 186 202 182 181 188 234 250 275 269 198 196 165 246 276 201 284 262 292 343 153 224 123 255 101 116 156 167 176 175 183
132 159 191 226 204 206 226 230 286 189 117 160 173 185 197 205 204 200 211 205 218 212 245 242 172 226 206 250 249 235 252 308 295 207 232 123 280 115 118 138 150 163 170 173 179
209 188 132 164 173 215 237 257 103 40 324 247 178 197 194 185 206 193 204 223 232 214 227 260 237 196 157 228 244 270 341 266 333 358 11 311 321 80 147 152 166 161 177 173 178
241 193 101 168 182 225 235 216 110 122 290 268 247 183 216 176 193 215 217 215 212 216 201 244 253 171 184 212 306 200 230 226 172 176 242 231 118 71 134 155 167 171 181 174 180
272 149 148 165 202 219 235 82 24 293 182 295 313 324 345 174 192 221 220 247 55 240 206 217 241 233 221 172 200 309 321 279 243 312 342 54 93 25 81 143 160 184 177 175 183
254 109 161 207 229 197 237 213 265 280 70 306 294 308 22 307 262 236 219 61 102 241 206 212 234 257 247 208 182 233 255 268 282 272 259 325 155 226 188 130 165 171 179 182 184
282 148 151 212 275 277 201 223 181 173 268 307 315 261 282 218 219 179 207 117 191 247 352 307 234 247 266 40 360 323 267 266 292 309 23 14 128 205 148 132 148 157 165 186 188
321 36 20 197 215 256 345 40 243 187 234 288 213 342 321 291 197 113 337 144 185 128 230 246 252 267 273 122 234 251 244 246 231 303 41 228 342 31 116 125 149 157 166 181 191
352 332 325 16 148 251 141 130 335 76 318 126 343 337 343 38 6 16 332 287 154 175 230 233 269 286 287 297 203 239 271 219 234 276 287 329 298 104 100 117 152 163 172 176 188
2 340 284 147 255 254 52 43 23 331 132 51 339 311 259 43 325 307 300 295 291 288 291 242 237 257 271 280 290 231 251 236 271 248 285 295 47 13 116 144 162 171 180 181 189